| time (UTC) | temp C | wind direction | speed KPH | gust KPH | rain 1hr cm | rain 24hr cm | rain mn cm | humidity % | barometer mb |
| 20260505170031 | 18 | 230 | 14.5 | 24.1 | 0.00 | 0.00 | 0.00 | 61 | 1012.8 |
| 20260505164525 | 18 | 229 | 17.7 | 22.5 | 0.00 | 0.00 | 0.00 | 60 | 1012.7 |
| 20260505163023 | 17 | 243 | 17.7 | 25.7 | 0.00 | 0.00 | 0.00 | 62 | 1012.7 |
| 20260505161535 | 17 | 233 | 20.9 | 29.0 | 0.00 | 0.00 | 0.00 | 63 | 1012.6 |
| 20260505153013 | -17 | 0.0 | 0.0 | 0.00 | 0.00 | 0.00 | 1012.5 | ||
| 20260505151505 | -17 | 0.0 | 0.0 | 0.00 | 0.00 | 0.00 | 1012.3 | ||
| 20260505124523 | -17 | 0.0 | 0.0 | 0.00 | 0.00 | 0.00 | 1010.9 | ||
| 20260505123018 | -17 | 0.0 | 0.0 | 0.00 | 0.00 | 0.00 | 1010.8 | ||
| 20260505121528 | -17 | 0.0 | 0.0 | 0.00 | 0.00 | 0.00 | 1010.7 | ||
| 20260505120009 | -17 | 0.0 | 0.0 | 0.00 | 0.00 | 0.00 | 1010.7 | ||
| 20260505114505 | -17 | 0.0 | 0.0 | 0.00 | 0.00 | 0.00 | 1010.5 | ||
| 20260505113000 | -17 | 0.0 | 0.0 | 0.00 | 0.00 | 0.00 | 1010.5 | ||
| 20260505111556 | -17 | 0.0 | 0.0 | 0.00 | 0.00 | 0.00 | 1010.3 | ||
| 20260505101551 | 13 | 202 | 8.0 | 11.3 | 0.00 | 0.00 | 0.00 | 63 | 1009.9 |
| 20260505100048 | 13 | 196 | 4.8 | 8.0 | 0.00 | 0.00 | 0.00 | 66 | 1009.8 |
| 20260505094547 | 12 | 197 | 1.6 | 9.7 | 0.00 | 0.00 | 0.00 | 67 | 1009.7 |
| 20260505093053 | 12 | 171 | 1.6 | 8.0 | 0.00 | 0.00 | 0.00 | 68 | 1009.7 |
| 20260505091543 | 12 | 148 | 0.0 | 1.6 | 0.00 | 0.00 | 0.00 | 68 | 1009.6 |
| 20260505090045 | 12 | 165 | 1.6 | 4.8 | 0.00 | 0.00 | 0.00 | 68 | 1009.6 |
| 20260505084550 | 13 | 176 | 8.0 | 11.3 | 0.00 | 0.00 | 0.00 | 67 | 1009.5 |
| 20260505083046 | 15 | 196 | 4.8 | 14.5 | 0.00 | 0.00 | 0.00 | 68 | 1009.4 |
| 20260505081533 | 14 | 165 | 1.6 | 4.8 | 0.00 | 0.00 | 0.00 | 67 | 1009.4 |
| 20260505080041 | 14 | 211 | 3.2 | 8.0 | 0.00 | 0.00 | 0.00 | 67 | 1009.2 |
| 20260505074529 | 14 | 223 | 6.4 | 8.0 | 0.00 | 0.00 | 0.00 | 63 | 1009.2 |
| 20260505073033 | 14 | 223 | 0.0 | 0.0 | 0.00 | 0.00 | 0.00 | 59 | 1009.2 |
| 20260505071523 | 15 | 211 | 4.8 | 8.0 | 0.00 | 0.00 | 0.00 | 58 | 1009.2 |
| 20260505070020 | 15 | 200 | 9.7 | 16.1 | 0.00 | 0.00 | 0.00 | 56 | 1008.9 |
| 20260505064521 | 16 | 213 | 14.5 | 29.0 | 0.00 | 0.00 | 0.00 | 55 | 1008.6 |
| 20260505063018 | 16 | 127 | 1.6 | 6.4 | 0.00 | 0.00 | 0.00 | 51 | 1008.6 |
| 20260505061517 | 17 | 200 | 0.0 | 0.0 | 0.00 | 0.00 | 0.00 | 48 | 1008.6 |
| 20260505060019 | 18 | 200 | 0.0 | 3.2 | 0.00 | 0.00 | 0.00 | 44 | 1008.5 |
| 20260505054517 | 18 | 192 | 1.6 | 4.8 | 0.00 | 0.00 | 0.00 | 45 | 1008.3 |
| 20260505053019 | 17 | 182 | 1.6 | 3.2 | 0.00 | 0.00 | 0.00 | 47 | 1008.2 |
| 20260505051517 | 17 | 107 | 0.0 | 6.4 | 0.00 | 0.00 | 0.00 | 50 | 1008.3 |
| 20260505041513 | 16 | 153 | 8.0 | 12.9 | 0.00 | 0.00 | 0.00 | 52 | 1008.2 |
| 20260505040012 | 17 | 145 | 9.7 | 14.5 | 0.00 | 0.00 | 0.00 | 51 | 1008.1 |
| 20260505034512 | 17 | 153 | 8.0 | 11.3 | 0.00 | 0.00 | 0.00 | 50 | 1007.9 |
| 20260505033011 | 18 | 141 | 4.8 | 8.0 | 0.00 | 0.00 | 0.00 | 49 | 1007.8 |
| 20260505031512 | 19 | 155 | 11.3 | 12.9 | 0.00 | 0.00 | 0.00 | 38 | 1007.7 |
| 20260505030010 | 21 | 169 | 8.0 | 9.7 | 0.00 | 0.00 | 0.00 | 28 | 1007.6 |
| 20260505024508 | 23 | 162 | 9.7 | 11.3 | 0.00 | 0.00 | 0.00 | 23 | 1007.5 |
| 20260505023008 | 28 | 170 | 6.4 | 8.0 | 0.00 | 0.00 | 0.00 | 16 | 1007.6 |
| 20260505021512 | 30 | 53 | 0.0 | 0.0 | 0.00 | 0.00 | 0.00 | 12 | 1007.6 |
| 20260505020015 | 31 | 53 | 0.0 | 0.0 | 0.00 | 0.00 | 0.00 | 11 | 1007.7 |
| 20260505014506 | 29 | 53 | 1.6 | 3.2 | 0.00 | 0.00 | 0.00 | 14 | 1007.8 |
| 20260505013104 | 28 | 89 | 1.6 | 6.4 | 0.00 | 0.00 | 0.00 | 14 | 1007.9 |
| 20260505011503 | 28 | 54 | 6.4 | 9.7 | 0.00 | 0.00 | 0.00 | 18 | 1008.0 |
| 20260505010002 | 27 | 40 | 6.4 | 12.9 | 0.00 | 0.00 | 0.00 | 14 | 1008.1 |
| 20260505004601 | 29 | 69 | 8.0 | 12.9 | 0.00 | 0.00 | 0.00 | 15 | 1008.2 |
| 20260505003059 | 29 | 32 | 8.0 | 11.3 | 0.00 | 0.00 | 0.00 | 15 | 1008.2 |
| 20260505001558 | 29 | 42 | 8.0 | 16.1 | 0.00 | 0.00 | 0.00 | 15 | 1008.3 |
| 20260505000059 | 29 | 28 | 9.7 | 19.3 | 0.00 | 0.00 | 0.00 | 15 | 1008.3 |
| 20260504234557 | 30 | 32 | 4.8 | 20.9 | 0.00 | 0.00 | 0.00 | 15 | 1008.3 |
| 20260504233056 | 30 | 339 | 3.2 | 12.9 | 0.00 | 0.00 | 0.00 | 13 | 1008.3 |
| 20260504231557 | 30 | 350 | 8.0 | 19.3 | 0.00 | 0.00 | 0.00 | 12 | 1008.4 |
| 20260504230053 | 30 | 17 | 12.9 | 19.3 | 0.00 | 0.00 | 0.00 | 12 | 1008.6 |
| 20260504224652 | 28 | 30 | 16.1 | 20.9 | 0.00 | 0.00 | 0.00 | 15 | 1008.7 |
| 20260504223049 | 30 | 30 | 16.1 | 20.9 | 0.00 | 0.00 | 0.00 | 15 | 1008.8 |
| 20260504221545 | 30 | 11 | 16.1 | 22.5 | 0.00 | 0.00 | 0.00 | 12 | 1008.9 |
| 20260504220042 | 30 | 17 | 12.9 | 20.9 | 0.00 | 0.00 | 0.00 | 15 | 1009.0 |
| 20260504214546 | 27 | 40 | 19.3 | 24.1 | 0.00 | 0.00 | 0.00 | 20 | 1009.2 |
| 20260504213039 | 27 | 30 | 19.3 | 22.5 | 0.00 | 0.00 | 0.00 | 21 | 1009.3 |
| 20260504211536 | 27 | 32 | 20.9 | 25.7 | 0.00 | 0.00 | 0.00 | 19 | 1009.5 |
| 20260504210050 | 26 | 53 | 19.3 | 27.4 | 0.00 | 0.00 | 0.00 | 22 | 1009.6 |
| 20260504204551 | 27 | 33 | 19.3 | 29.0 | 0.00 | 0.00 | 0.00 | 24 | 1009.7 |
| 20260504203035 | 28 | 49 | 16.1 | 20.9 | 0.00 | 0.00 | 0.00 | 22 | 1009.8 |
| 20260504201533 | 28 | 25 | 9.7 | 17.7 | 0.00 | 0.00 | 0.00 | 22 | 1009.8 |
| 20260504200031 | 27 | 355 | 8.0 | 16.1 | 0.00 | 0.00 | 0.00 | 20 | 1009.9 |
| 20260504194529 | 28 | 53 | 8.0 | 14.5 | 0.00 | 0.00 | 0.00 | 22 | 1010.0 |
| 20260504193028 | 27 | 207 | 6.4 | 12.9 | 0.00 | 0.00 | 0.00 | 18 | 1010.0 |
| 20260504191524 | 26 | 320 | 3.2 | 11.3 | 0.00 | 0.00 | 0.00 | 22 | 1010.1 |
| 20260504190022 | 25 | 271 | 4.8 | 14.5 | 0.00 | 0.00 | 0.00 | 22 | 1010.2 |
| 20260504184519 | 23 | 168 | 3.2 | 14.5 | 0.00 | 0.00 | 0.00 | 23 | 1010.2 |
| 20260504183017 | 24 | 309 | 3.2 | 16.1 | 0.00 | 0.00 | 0.00 | 27 | 1010.3 |
| 20260504181516 | 23 | 186 | 3.2 | 14.5 | 0.00 | 0.00 | 0.00 | 27 | 1010.4 |
| 20260504180015 | 23 | 323 | 6.4 | 16.1 | 0.00 | 0.00 | 0.00 | 29 | 1010.4 |
| 20260504174512 | 22 | 319 | 8.0 | 12.9 | 0.00 | 0.00 | 0.00 | 32 | 1010.3 |
| 20260504173010 | 21 | 298 | 6.4 | 12.9 | 0.00 | 0.00 | 0.00 | 31 | 1010.3 |
| 20260504171507 | 21 | 346 | 4.8 | 8.0 | 0.00 | 0.00 | 0.00 | 31 | 1010.3 |